Location: Casilda
(33.0440°S, 61.1680°W)
Time: 08:26:43
(UTC-03:00)

ISS - Pass Details

Date: 15 October 2021
Orbit: 417 x 423 km, 51.6° (Epoch: 18 October)

Event Time Altitude Azimuth Distance (km) Brightness Sun altitude
Exits shadow 03:56:08 13° 85° (E) 1,378 -0.6 -29.3°
Drops below altitude 10° 03:56:33 10° 81° (E) 1,521 -0.4 -29.2°
Sets 03:58:50 0° 69° (ENE) 2,379 0.5 -28.8°
